FW2439 Weather Reports


time (UTC)temp
C
wind
direction
speed
KPH
gust
KPH
rain 1hr
cm
rain 24hr
cm
rain mn
cm
humidity
%
barometer
mb
20260903061514 23 268 0.0 0.0 0.00 0.00 0.00 94 1016.1
20260903060007 23 268 0.0 0.0 0.00 0.00 0.00 94 1016.1
20260903054509 23 268 0.0 0.0 0.00 0.00 0.00 94 1016.1
20260903053003 23 268 0.0 0.0 0.00 0.00 0.00 94 1016.0
20260903051502 23 268 0.0 0.0 0.00 0.00 0.00 94 1015.9
20260903050100 23 268 0.0 0.0 0.00 0.00 0.00 93 1015.9
20260903044601 23 268 0.0 0.0 0.00 0.00 0.00 93 1015.9
20260903043058 23 268 0.0 0.0 0.00 0.00 0.00 92 1016.0
20260903041610 23 268 0.0 0.0 0.00 0.00 0.00 92 1015.9
20260903040115 24 268 0.0 0.0 0.00 0.00 0.00 91 1015.8
20260903034601 24 268 0.0 0.0 0.00 0.00 0.00 91 1016.0
20260903033055 24 268 0.0 0.0 0.00 0.00 0.00 90 1016.2
20260903031553 25 268 0.0 0.0 0.00 0.00 0.00 90 1016.0
20260903030054 25 268 0.0 0.0 0.00 0.00 0.00 89 1016.1
20260903024554 25 268 0.0 0.0 0.00 0.00 0.00 88 1016.0
20260903023055 25 268 0.0 0.0 0.00 0.00 0.00 87 1015.8
20260903021552 26 268 0.0 0.0 0.00 0.00 0.00 87 1015.7
20260903020052 26 268 0.0 0.0 0.00 0.00 0.00 86 1015.9
20260903014554 26 268 0.0 0.0 0.00 0.00 0.00 85 1015.5
20260903013052 27 268 0.0 0.0 0.00 0.00 0.00 83 1015.3
20260903011553 27 268 0.0 0.0 0.00 0.00 0.00 82 1015.3
20260903010050 28 268 0.0 0.0 0.00 0.00 0.00 79 1015.1
20260903004555 28 268 0.0 0.0 0.00 0.00 0.00 77 1015.2
20260903003049 30 268 0.0 0.0 0.00 0.00 0.00 74 1015.2
20260903001601 30 268 0.0 0.0 0.00 0.00 0.00 71 1015.3
20260903000047 31 268 0.0 0.0 0.00 0.00 0.00 69 1015.2
20260902234547 32 268 0.0 0.0 0.00 0.00 0.00 66 1015.3
20260902233047 33 268 0.0 0.0 0.00 0.00 0.00 63 1015.3
20260902231546 33 267 0.0 0.0 0.00 0.00 0.00 61 1015.3
20260902230047 34 267 0.0 1.6 0.00 0.00 0.00 59 1015.3
20260902224552 35 305 0.0 3.2 0.00 0.00 0.00 55 1015.4
20260902223044 36 283 0.0 4.8 0.00 0.00 0.00 53 1015.4
20260902221547 36 236 0.0 3.2 0.00 0.00 0.00 52 1015.5
20260902220051 36 264 1.6 4.8 0.00 0.00 0.00 52 1015.5
20260902214541 36 245 0.0 6.4 0.00 0.00 0.00 52 1015.6
20260902213047 36 249 1.6 8.0 0.00 0.00 0.00 50 1015.6
20260902211537 36 290 0.0 3.2 0.00 0.00 0.00 51 1015.7
20260902210036 36 280 0.0 4.8 0.00 0.00 0.00 52 1015.8
20260902204535 36 298 1.6 4.8 0.00 0.00 0.00 52 1015.9
20260902203032 36 248 0.0 3.2 0.00 0.00 0.00 50 1016.1
20260902201530 36 248 0.0 1.6 0.00 0.00 0.00 52 1016.3
20260902200030 37 319 1.6 8.0 0.00 0.00 0.00 48 1016.4
20260902194525 36 277 0.0 4.8 0.00 0.00 0.00 53 1016.5
20260902193025 36 232 3.2 6.4 0.00 0.00 0.00 52 1016.6
20260902191522 36 231 1.6 9.7 0.00 0.00 0.00 51 1016.9
20260902190031 36 252 0.0 3.2 0.00 0.00 0.00 52 1017.0
20260902184515 36 226 1.6 8.0 0.00 0.00 0.00 52 1017.2
20260902183014 35 191 1.6 6.4 0.00 0.00 0.00 57 1017.3
20260902181512 35 185 1.6 6.4 0.00 0.00 0.00 53 1017.4
20260902180014 35 233 0.0 4.8 0.00 0.00 0.00 56 1017.6
20260902174507 35 269 1.6 8.0 0.00 0.00 0.00 53 1017.7
20260902173009 35 205 0.0 9.7 0.00 0.00 0.00 56 1018.0
20260902171505 35 208 0.0 6.4 0.00 0.00 0.00 56 1018.1
20260902170100 34 262 0.0 6.4 0.00 0.00 0.00 62 1018.3
20260902164603 34 25 1.6 8.0 0.00 0.00 0.00 59 1018.6
20260902163057 34 313 1.6 6.4 0.00 0.00 0.00 61 1018.8
20260902161555 34 248 0.0 6.4 0.00 0.00 0.00 59 1018.8
20260902160053 34 236 1.6 4.8 0.00 0.00 0.00 62 1018.8
20260902154552 33 264 1.6 4.8 0.00 0.00 0.00 60 1019.0
20260902153052 33 230 0.0 4.8 0.00 0.00 0.00 64 1018.9
20260902151545 33 212 0.0 3.2 0.00 0.00 0.00 64 1019.2
20260902150040 32 198 1.6 3.2 0.00 0.00 0.00 65 1019.3
20260902144537 32 228 0.0 3.2 0.00 0.00 0.00 68 1019.3
20260902143033 30 222 0.0 3.2 0.00 0.00 0.00 73 1019.2
20260902141534 28 222 0.0 4.8 0.00 0.00 0.00 80 1019.2
20260902140026 26 231 0.0 1.6 0.00 0.00 0.00 87 1019.2
20260902134524 25 226 0.0 3.2 0.00 0.00 0.00 94 1019.4
20260902133025 23 265 0.0 1.6 0.00 0.00 0.00 98 1019.3
20260902131511 23 266 0.0 0.0 0.00 0.00 0.00 100 1019.2
20260902130008 22 265 0.0 0.0 0.00 0.00 0.00 100 1019.2
20260902124510 22 265 0.0 0.0 0.00 0.00 0.00 100 1019.0
20260902123005 21 266 0.0 0.0 0.00 0.00 0.00 99 1019.0
20260902121503 21 266 0.0 0.0 0.00 0.00 0.00 99 1018.8
20260902120002 21 266 0.0 0.0 0.00 0.00 0.00 99 1018.6
20260902114601 21 266 0.0 0.0 0.00 0.00 0.00 99 1018.5
20260902113107 21 266 0.0 0.0 0.00 0.00 0.00 98 1018.4
20260902111557 21 266 0.0 0.0 0.00 0.00 0.00 98 1018.2
20260902110057 21 266 0.0 0.0 0.00 0.00 0.00 99 1017.9
20260902104556 21 266 0.0 0.0 0.00 0.00 0.00 98 1018.0
20260902103054 21 266 0.0 0.0 0.00 0.00 0.00 98 1017.9
20260902101552 21 266 0.0 0.0 0.00 0.00 0.00 98 1017.7
20260902100052 21 266 0.0 0.0 0.00 0.00 0.00 98 1017.7
20260902094555 21 266 0.0 0.0 0.00 0.00 0.00 98 1017.5
20260902093049 21 265 0.0 0.0 0.00 0.00 0.00 98 1017.4
20260902091549 21 266 0.0 0.0 0.00 0.00 0.00 98 1017.5
20260902090045 21 266 0.0 0.0 0.00 0.00 0.00 97 1017.3
20260902084548 21 266 0.0 0.0 0.00 0.00 0.00 97 1017.3
20260902083045 21 266 0.0 0.0 0.00 0.00 0.00 97 1017.2
20260902081551 22 266 0.0 0.0 0.00 0.00 0.00 97 1017.1
20260902080042 22 266 0.0 0.0 0.00 0.00 0.00 97 1017.2
20260902074559 22 266 0.0 0.0 0.00 0.00 0.00 96 1017.1
20260902073041 22 266 0.0 0.0 0.00 0.00 0.00 96 1017.1
20260902071539 22 266 0.0 0.0 0.00 0.00 0.00 96 1017.2
20260902070039 22 266 0.0 0.0 0.00 0.00 0.00 96 1017.1
20260902064537 22 265 0.0 0.0 0.00 0.00 0.00 96 1017.1
20260902063055 22 266 0.0 0.0 0.00 0.00 0.00 95 1017.3